Location: Auckland
(36.8670°S, 174.7670°E)
Time: 23:09:19
(UTC+12:00)

Tiros 1 despin weight - Pass Details

Date: 21 July 2019
Orbit: 594 x 642 km, 48.2° (Epoch: 20 August)

Event Time Altitude Azimuth Distance (km) Brightness Sun altitude
Rises 22:50:36 0° 331° (NNW) 2,827 - -63.3°
Reaches altitude 10° 22:53:03 10° 341° (NNW) 1,929 - -63.7°
Maximum altitude 22:57:00 32° 44° (NE) 1,027 - -64.4°
Drops below altitude 10° 23:00:59 10° 107° (ESE) 1,947 - -65.1°
Sets 23:03:27 0° 117° (ESE) 2,859 - -65.5°
